TimeCDT,TemperatureF,Dew PointF,Humidity,Sea Level PressureIn,VisibilityMPH,Wind Direction,Wind SpeedMPH,Gust SpeedMPH,PrecipitationIn,Events,Conditions,WindDirDegrees,DateUTC
12:54 AM,66.0,63.0,90,29.72,10.0,NNE,11.5,-,0.00,Rain,Light Rain,30,2013-06-13 05:54:00
1:54 AM,66.0,63.0,90,29.75,10.0,North,12.7,-,0.00,Rain,Light Rain,10,2013-06-13 06:54:00
2:54 AM,66.0,63.0,90,29.79,10.0,North,8.1,-,0.00,,Overcast,360,2013-06-13 07:54:00
3:54 AM,64.0,59.0,84,29.82,10.0,North,16.1,-,N/A,,Overcast,360,2013-06-13 08:54:00
4:02 AM,62.6,57.2,82,29.83,10.0,North,16.1,-,N/A,,Overcast,360,2013-06-13 09:02:00
4:54 AM,62.1,55.9,80,29.84,10.0,North,9.2,-,N/A,,Mostly Cloudy,360,2013-06-13 09:54:00
5:54 AM,61.0,55.9,83,29.86,10.0,North,9.2,-,N/A,,Scattered Clouds,360,2013-06-13 10:54:00
6:54 AM,64.0,55.9,75,29.89,10.0,North,13.8,-,N/A,,Partly Cloudy,350,2013-06-13 11:54:00
7:54 AM,68.0,55.0,63,29.91,10.0,NNE,13.8,-,N/A,,Clear,20,2013-06-13 12:54:00
8:54 AM,70.0,54.0,57,29.94,10.0,NE,11.5,-,N/A,,Clear,40,2013-06-13 13:54:00
9:54 AM,73.0,55.0,53,29.95,10.0,NNE,13.8,19.6,N/A,,Clear,30,2013-06-13 14:54:00
10:54 AM,75.9,55.9,50,29.97,10.0,NNE,12.7,-,N/A,,Partly Cloudy,30,2013-06-13 15:54:00
11:54 AM,75.9,55.9,50,29.98,10.0,NNW,12.7,17.3,N/A,,Scattered Clouds,330,2013-06-13 16:54:00
12:54 PM,79.0,55.9,45,29.99,10.0,North,12.7,17.3,N/A,,Scattered Clouds,10,2013-06-13 17:54:00
1:54 PM,77.0,55.0,47,29.99,10.0,North,9.2,-,N/A,,Scattered Clouds,350,2013-06-13 18:54:00
2:54 PM,80.1,54.0,40,29.99,10.0,NNW,11.5,18.4,N/A,,Scattered Clouds,330,2013-06-13 19:54:00
3:54 PM,80.1,54.0,40,29.99,10.0,NNW,10.4,-,N/A,,Scattered Clouds,330,2013-06-13 20:54:00
4:54 PM,79.0,55.0,44,29.98,10.0,NW,10.4,-,N/A,,Mostly Cloudy,320,2013-06-13 21:54:00
5:54 PM,79.0,55.9,45,29.98,10.0,North,13.8,-,N/A,,Scattered Clouds,10,2013-06-13 22:54:00
6:54 PM,78.1,55.9,46,30.00,10.0,NNE,10.4,-,N/A,,Partly Cloudy,20,2013-06-13 23:54:00
7:54 PM,73.9,57.0,55,30.01,10.0,NE,8.1,-,N/A,,Partly Cloudy,50,2013-06-14 00:54:00
8:54 PM,69.1,59.0,70,30.04,10.0,East,6.9,-,N/A,,Partly Cloudy,80,2013-06-14 01:54:00
9:54 PM,66.0,59.0,78,30.05,10.0,East,3.5,-,N/A,,Partly Cloudy,100,2013-06-14 02:54:00
10:54 PM,64.0,57.0,78,30.06,10.0,East,9.2,-,N/A,,Clear,90,2013-06-14 03:54:00
11:54 PM,62.1,55.0,78,30.07,10.0,East,4.6,-,N/A,,Clear,80,2013-06-14 04:54:00